This demonstration page uses our WeatherBlox Daily Observations layout. Learn more.

Left ArrowRight Arrow

Hourly Observations for July 17, 2016

Temp ( °F °C ) Dew Point ( °F °C ) Humidity (%) Winds ( mph kmh ) Pressure ( in mb ) Visibility ( mi km ) Precip ( " mm )
12:15 am 00:15 Clear 75 23.7 64 17.6 69 69 SSE 13 20 29.77 1008 10 16 N/A
12:35 am 00:35 Clear 75 23.7 64 17.7 69 69 S 16 26 29.77 1008 10 16 N/A
12:55 am 00:55 Clear 74 23.6 64 17.7 70 70 S 13 20 29.77 1008 10 16 N/A
1:15 am 01:15 Clear 74 23.6 64 17.7 70 70 S 16 26 29.77 1008 10 16 N/A
1:35 am 01:35 Clear 75 23.8 63 17.3 67 67 S 17 28 29.74 1007 10 16 N/A
1:55 am 01:55 Clear 74 23.6 64 17.5 69 69 S 13 20 29.74 1007 10 16 N/A
2:15 am 02:15 Clear 76 24.6 62 16.8 62 62 SSW 21 33 29.74 1007 10 16 N/A
2:35 am 02:35 Clear 77 25.2 63 17.2 61 61 SSW 25 41 29.68 1005 10 16 N/A
2:55 am 02:55 Clear with Thunderstorms 82 27.9 55 12.9 40 40 S 28 44 29.62 1003 10 16 N/A
3:15 am 03:15 Clear 79 26.2 57 14.1 47 47 SW 10 17 29.65 1004 10 16 N/A
3:35 am 03:35 Clear 74 23.6 63 17.2 67 67 S 29 46 29.71 1006 10 16 N/A
3:55 am 03:55 Clear 74 23.2 63 17.4 70 70 S 26 43 29.71 1006 10 16 N/A
4:15 am 04:15 Clear 75 23.8 60 15.6 60 60 S 20 31 29.74 1007 10 16 N/A
4:35 am 04:35 Clear 75 24 57 14.1 54 54 S 17 28 29.74 1007 10 16 N/A
4:55 am 04:55 Clear 74 23.3 57 14 56 56 S 15 24 29.71 1006 10 16 N/A
5:15 am 05:15 Clear 73 22.9 58 14.5 59 59 S 14 22 29.74 1007 10 16 N/A
5:35 am 05:35 Clear 72 22.3 58 14.6 62 62 S 10 17 29.74 1007 10 16 N/A
5:55 am 05:55 Clear 73 22.5 60 15.3 64 64 S 12 19 29.74 1007 10 16 N/A
6:15 am 06:15 Clear 73 23 61 16 65 65 S 9 15 29.74 1007 10 16 N/A
6:35 am 06:35 Sunny 73 23 62 16.4 66 66 S 9 15 29.74 1007 10 16 N/A
6:55 am 06:55 Sunny 74 23.6 62 16.5 65 65 S 13 20 29.74 1007 10 16 N/A
7:15 am 07:15 Sunny 75 23.8 62 16.6 64 64 SSW 7 11 29.77 1008 10 16 N/A
7:35 am 07:35 Sunny 75 23.8 63 17 66 66 SSW 6 9 29.77 1008 10 16 N/A
7:55 am 07:55 Sunny 75 23.8 63 17.2 67 67 S 6 9 29.80 1009 10 16 N/A
8:15 am 08:15 Sunny 76 24.2 64 17.6 67 67 S 8 13 29.80 1009 10 16 N/A
8:35 am 08:35 Sunny 76 24.7 64 18 66 66 S 7 11 29.80 1009 10 16 N/A
8:55 am 08:55 Sunny 78 25.5 64 18 63 63 S 8 13 29.80 1009 10 16 N/A
9:15 am 09:15 Sunny 79 26.2 65 18.2 61 61 S 12 19 29.77 1008 10 16 N/A
9:35 am 09:35 Sunny 79 25.9 64 18 62 62 S 10 17 29.77 1008 10 16 N/A
9:55 am 09:55 Sunny 81 27 64 17.9 58 58 S 10 17 29.77 1008 10 16 N/A
10:15 am 10:15 Sunny 81 27.2 64 17.7 56 56 S 13 20 29.80 1009 10 16 N/A
10:35 am 10:35 Sunny 82 27.7 64 17.8 55 55 S 13 20 29.80 1009 10 16 N/A
10:55 am 10:55 Sunny 82 27.6 64 17.7 55 55 S 9 15 29.80 1009 10 16 N/A
11:15 am 11:15 Sunny 82 27.8 65 18.5 57 57 S 7 11 29.80 1009 10 16 N/A
11:35 am 11:35 Sunny 81 27.4 65 18.3 58 58 SE 7 11 29.83 1010 10 16 N/A
11:55 am 11:55 Partly Cloudy 82 27.5 65 18.4 58 58 SE 5 7 29.83 1010 10 16 N/A
12:15 pm 12:15 Sunny 82 27.7 66 18.9 59 59 ESE 5 7 29.83 1010 10 16 N/A
12:35 pm 12:35 Sunny 82 27.6 65 18.3 57 57 E 3 6 29.83 1010 10 16 N/A
12:55 pm 12:55 Partly Cloudy 82 27.7 66 19.1 60 60 E 5 7 29.83 1010 10 16 N/A
1:15 pm 13:15 Partly Cloudy 82 27.8 66 19 59 59 E 6 9 29.83 1010 10 16 N/A
1:35 pm 13:35 Partly Cloudy 83 28.2 67 19.3 59 59 SE 8 13 29.83 1010 10 16 N/A
1:55 pm 13:55 Partly Cloudy 83 28.4 66 19.1 57 57 ESE 9 15 29.83 1010 10 16 N/A
2:15 pm 14:15 Partly Cloudy 84 28.8 67 19.5 57 57 ESE 14 22 29.83 1010 10 16 N/A
2:35 pm 14:35 Sunny 84 28.7 66 18.9 55 55 E 13 20 29.83 1010 10 16 N/A
2:55 pm 14:55 Sunny 84 28.7 66 18.9 55 55 E 13 20 29.85 1011 10 16 N/A
3:15 pm 15:15 Sunny 84 29.1 66 19.1 55 55 E 8 13 29.85 1011 10 16 N/A
3:35 pm 15:35 Sunny 85 29.2 66 18.7 53 53 E 9 15 29.85 1011 10 16 N/A
3:55 pm 15:55 Sunny 85 29.4 66 19.1 54 54 E 10 17 29.85 1011 10 16 N/A
4:15 pm 16:15 Partly Cloudy 84 29.1 67 19.5 56 56 E 9 15 29.85 1011 10 16 N/A
4:35 pm 16:35 Partly Cloudy 85 29.5 67 19.7 56 56 E 6 9 29.85 1011 10 16 N/A
4:55 pm 16:55 Partly Cloudy 85 29.3 68 20.1 58 58 NE 8 13 29.85 1011 10 16 N/A
5:15 pm 17:15 Partly Cloudy 84 29 69 20.6 61 61 ENE 9 15 29.85 1011 10 16 N/A
5:35 pm 17:35 Partly Cloudy 84 29 69 20.4 60 60 NE 10 17 29.85 1011 10 16 N/A
5:55 pm 17:55 Sunny 85 29.4 69 20.3 58 58 NE 8 13 29.85 1011 10 16 N/A
6:15 pm 18:15 Sunny 84 29.1 69 20.6 60 60 ENE 10 17 29.85 1011 10 16 N/A
6:35 pm 18:35 Sunny 84 28.7 69 20.8 62 62 ENE 9 15 29.85 1011 10 16 N/A
6:55 pm 18:55 Sunny 83 28.5 70 21 64 64 NE 9 15 29.85 1011 10 16 N/A
7:15 pm 19:15 Sunny 83 28.3 71 21.6 67 67 NE 10 17 29.85 1011 10 16 N/A
7:35 pm 19:35 Sunny 82 27.9 70 21.3 67 67 ENE 9 15 29.85 1011 10 16 N/A
7:55 pm 19:55 Sunny 81 27.3 70 21 69 69 NE 10 17 29.85 1011 10 16 N/A
8:15 pm 20:15 Sunny 80 26.7 69 20.6 69 69 NE 8 13 29.88 1012 10 16 N/A
8:35 pm 20:35 Sunny 78 25.6 69 20.7 74 74 ENE 7 11 29.88 1012 10 16 N/A
8:55 pm 20:55 Sunny 77 24.8 70 21 79 79 NE 6 9 29.91 1013 10 16 N/A
9:15 pm 21:15 Clear 76 24.5 70 21 81 81 E 7 11 29.88 1012 10 16 N/A
9:35 pm 21:35 Clear 75 23.7 70 21 85 85 NE 6 9 29.91 1013 10 16 N/A
9:55 pm 21:55 Clear 74 23.1 70 21 88 88 NE 6 9 29.94 1014 10 16 N/A
10:15 pm 22:15 Clear 74 23.1 70 21.1 89 89 ENE 7 11 29.94 1014 10 16 N/A
10:35 pm 22:35 Clear 74 23.5 70 21.2 87 87 ENE 9 15 29.97 1015 10 16 N/A
10:55 pm 22:55 Clear 75 23.7 71 21.4 87 87 E 9 15 29.94 1014 10 16 N/A
11:15 pm 23:15 Clear 75 23.7 70 21.3 86 86 NNE 6 9 29.94 1014 10 16 N/A
11:35 pm 23:35 Clear 74 23.2 70 21.2 89 89 ENE 5 7 30.00 1016 10 16 N/A
11:55 pm 23:55 Clear 73 23 70 21.2 90 90 ENE 7 11 29.97 1015 10 16 N/A

Powered by AerisWeather